Time,TemperatureF,DewpointF,PressureIn,WindDirection,WindDirectionDegrees,WindSpeedMPH,WindSpeedGustMPH,Humidity,HourlyPrecipIn,Conditions,Clouds,dailyrainin,SoftwareType,DateUTC
2013-06-14 00:04:00,74.0,70.2,29.92,SE,129,0.0,6.0,88,0.00,,,0.00,Wunderground v.1.15,2013-06-14 05:04:00,
2013-06-14 00:10:00,73.8,70.4,29.92,SE,129,0.0,0.0,89,0.00,,,0.00,Wunderground v.1.15,2013-06-14 05:10:00,
2013-06-14 00:16:00,73.7,70.3,29.92,SE,129,0.0,0.0,89,0.00,,,0.00,Wunderground v.1.15,2013-06-14 05:16:00,
2013-06-14 00:22:00,73.6,70.5,29.91,SE,129,0.0,0.0,90,0.00,,,0.00,Wunderground v.1.15,2013-06-14 05:22:00,
2013-06-14 00:28:00,73.4,70.3,29.91,SE,129,0.0,0.0,90,0.00,,,0.00,Wunderground v.1.15,2013-06-14 05:28:00,
2013-06-14 00:34:00,73.3,70.2,29.91,SE,129,0.0,5.0,90,0.00,,,0.00,Wunderground v.1.15,2013-06-14 05:34:00,
2013-06-14 00:40:00,73.3,70.2,29.91,SE,129,1.0,1.0,90,0.00,,,0.00,Wunderground v.1.15,2013-06-14 05:40:00,
2013-06-14 00:46:00,73.3,70.2,29.91,SE,141,1.0,5.0,90,0.00,,,0.00,Wunderground v.1.15,2013-06-14 05:46:00,
2013-06-14 00:54:00,73.2,70.1,29.91,SSE,159,1.0,5.0,90,0.00,,,0.00,Wunderground v.1.15,2013-06-14 05:54:00,
2013-06-14 01:00:00,73.3,70.2,29.91,SSE,149,1.0,5.0,90,0.00,,,0.00,Wunderground v.1.15,2013-06-14 06:00:00,
2013-06-14 01:06:00,73.3,70.2,29.91,SE,142,1.0,5.0,90,0.00,,,0.00,Wunderground v.1.15,2013-06-14 06:06:00,
2013-06-14 01:12:00,73.4,70.3,29.90,SE,137,1.0,5.0,90,0.00,,,0.00,Wunderground v.1.15,2013-06-14 06:12:00,
2013-06-14 01:18:00,73.5,70.4,29.90,ESE,117,1.0,5.0,90,0.00,,,0.00,Wunderground v.1.15,2013-06-14 06:18:00,
2013-06-14 01:24:00,73.5,70.4,29.90,SE,141,1.0,5.0,90,0.00,,,0.00,Wunderground v.1.15,2013-06-14 06:24:00,
2013-06-14 01:30:00,73.5,70.4,29.90,SSE,148,1.0,1.0,90,0.00,,,0.00,Wunderground v.1.15,2013-06-14 06:30:00,
2013-06-14 01:36:00,73.5,70.7,29.90,SSE,148,1.0,5.0,91,0.00,,,0.00,Wunderground v.1.15,2013-06-14 06:36:00,
2013-06-14 01:42:00,73.5,70.7,29.90,SE,136,1.0,5.0,91,0.00,,,0.00,Wunderground v.1.15,2013-06-14 06:42:00,
2013-06-14 01:48:00,73.5,70.7,29.90,SE,136,1.0,5.0,91,0.00,,,0.00,Wunderground v.1.15,2013-06-14 06:48:00,
2013-06-14 01:54:00,73.5,70.7,29.90,SE,138,1.0,5.0,91,0.00,,,0.00,Wunderground v.1.15,2013-06-14 06:54:00,
2013-06-14 02:00:00,73.5,70.7,29.89,SE,138,0.0,5.0,91,0.00,,,0.00,Wunderground v.1.15,2013-06-14 07:00:00,
2013-06-14 02:06:00,73.3,70.5,29.90,SE,138,0.0,5.0,91,0.00,,,0.00,Wunderground v.1.15,2013-06-14 07:06:00,
2013-06-14 02:12:00,73.2,70.4,29.90,SE,138,0.0,5.0,91,0.00,,,0.00,Wunderground v.1.15,2013-06-14 07:12:00,
2013-06-14 02:18:00,73.0,70.2,29.89,SE,138,0.0,5.0,91,0.00,,,0.00,Wunderground v.1.15,2013-06-14 07:18:00,
2013-06-14 02:24:00,72.8,70.3,29.89,SE,138,0.0,5.0,92,0.00,,,0.00,Wunderground v.1.15,2013-06-14 07:24:00,
2013-06-14 02:30:00,72.7,70.2,29.89,SE,138,0.0,5.0,92,0.00,,,0.00,Wunderground v.1.15,2013-06-14 07:30:00,
2013-06-14 02:36:00,72.6,70.1,29.89,SE,138,0.0,5.0,92,0.00,,,0.00,Wunderground v.1.15,2013-06-14 07:36:00,
2013-06-14 02:42:00,72.5,70.4,29.89,SE,138,0.0,5.0,93,0.00,,,0.00,Wunderground v.1.15,2013-06-14 07:42:00,
2013-06-14 02:48:00,72.6,70.8,29.89,SE,140,0.0,5.0,94,0.00,,,0.00,Wunderground v.1.15,2013-06-14 07:48:00,
2013-06-14 02:54:00,72.7,70.9,29.89,SE,140,0.0,5.0,94,0.00,,,0.00,Wunderground v.1.15,2013-06-14 07:54:00,
2013-06-14 03:00:00,72.8,71.0,29.89,SE,140,0.0,5.0,94,0.00,,,0.00,Wunderground v.1.15,2013-06-14 08:00:00,
2013-06-14 03:06:00,72.9,71.1,29.88,SE,140,0.0,5.0,94,0.00,,,0.00,Wunderground v.1.15,2013-06-14 08:06:00,
2013-06-14 03:12:00,73.0,71.2,29.88,SE,140,0.0,5.0,94,0.00,,,0.00,Wunderground v.1.15,2013-06-14 08:12:00,
2013-06-14 03:18:00,72.9,71.1,29.88,SE,140,0.0,5.0,94,0.00,,,0.00,Wunderground v.1.15,2013-06-14 08:18:00,
2013-06-14 03:24:00,72.9,71.1,29.88,SE,140,0.0,5.0,94,0.00,,,0.00,Wunderground v.1.15,2013-06-14 08:24:00,
2013-06-14 03:30:00,72.9,71.1,29.88,SE,140,0.0,5.0,94,0.00,,,0.00,Wunderground v.1.15,2013-06-14 08:30:00,
2013-06-14 03:36:00,72.8,71.0,29.88,SE,140,0.0,5.0,94,0.00,,,0.00,Wunderground v.1.15,2013-06-14 08:36:00,
2013-06-14 03:42:00,72.7,70.9,29.88,SE,140,0.0,5.0,94,0.00,,,0.00,Wunderground v.1.15,2013-06-14 08:42:00,
2013-06-14 03:48:00,72.6,70.8,29.88,SE,140,0.0,5.0,94,0.00,,,0.00,Wunderground v.1.15,2013-06-14 08:48:00,
2013-06-14 03:54:00,72.8,71.3,29.89,SE,140,0.0,5.0,95,0.00,,,0.00,Wunderground v.1.15,2013-06-14 08:54:00,
2013-06-14 04:00:00,72.9,71.4,29.88,SE,140,0.0,5.0,95,0.00,,,0.00,Wunderground v.1.15,2013-06-14 09:00:00,
2013-06-14 04:06:00,72.9,71.4,29.89,SE,140,0.0,5.0,95,0.00,,,0.00,Wunderground v.1.15,2013-06-14 09:06:00,
2013-06-14 04:12:00,73.0,71.5,29.89,SE,140,0.0,5.0,95,0.00,,,0.00,Wunderground v.1.15,2013-06-14 09:12:00,
2013-06-14 04:18:00,73.0,71.2,29.89,SE,140,0.0,5.0,94,0.00,,,0.00,Wunderground v.1.15,2013-06-14 09:18:00,
2013-06-14 04:24:00,73.1,71.3,29.90,SE,140,0.0,5.0,94,0.00,,,0.00,Wunderground v.1.15,2013-06-14 09:24:00,
2013-06-14 04:30:00,73.1,71.3,29.90,SE,140,0.0,5.0,94,0.00,,,0.00,Wunderground v.1.15,2013-06-14 09:30:00,
2013-06-14 04:38:00,73.0,71.2,29.90,SE,140,0.0,5.0,94,0.00,,,0.00,Wunderground v.1.15,2013-06-14 09:38:00,
2013-06-14 04:44:00,72.9,71.1,29.90,SE,140,0.0,5.0,94,0.00,,,0.00,Wunderground v.1.15,2013-06-14 09:44:00,
2013-06-14 04:50:00,72.9,71.1,29.90,SE,140,0.0,5.0,94,0.00,,,0.00,Wunderground v.1.15,2013-06-14 09:50:00,
2013-06-14 04:56:00,72.9,71.1,29.90,SE,140,1.0,5.0,94,0.00,,,0.00,Wunderground v.1.15,2013-06-14 09:56:00,
2013-06-14 05:03:00,73.0,71.2,29.90,SE,140,1.0,5.0,94,0.00,,,0.00,Wunderground v.1.15,2013-06-14 10:03:00,
2013-06-14 05:08:00,73.0,71.2,29.90,SSE,157,1.0,5.0,94,0.00,,,0.00,Wunderground v.1.15,2013-06-14 10:08:00,
2013-06-14 05:14:00,73.1,71.0,29.91,SSE,148,1.0,2.0,93,0.00,,,0.00,Wunderground v.1.15,2013-06-14 10:14:00,
2013-06-14 05:20:00,73.1,71.0,29.91,SSE,152,1.0,1.0,93,0.00,,,0.00,Wunderground v.1.15,2013-06-14 10:20:00,
2013-06-14 05:26:00,73.2,71.1,29.91,SSE,162,1.0,2.0,93,0.00,,,0.00,Wunderground v.1.15,2013-06-14 10:26:00,
2013-06-14 05:32:00,73.2,71.1,29.91,SSE,162,1.0,1.0,93,0.00,,,0.00,Wunderground v.1.15,2013-06-14 10:32:00,
2013-06-14 05:38:00,73.3,71.2,29.91,SSE,162,0.0,2.0,93,0.00,,,0.00,Wunderground v.1.15,2013-06-14 10:38:00,
2013-06-14 05:44:00,73.3,71.2,29.92,SSE,162,0.0,2.0,93,0.00,,,0.00,Wunderground v.1.15,2013-06-14 10:44:00,
2013-06-14 05:50:00,73.4,71.3,29.92,SSE,162,0.0,2.0,93,0.00,,,0.00,Wunderground v.1.15,2013-06-14 10:50:00,
2013-06-14 05:56:00,73.4,71.3,29.92,SSE,162,1.0,2.0,93,0.00,,,0.00,Wunderground v.1.15,2013-06-14 10:56:00,
2013-06-14 06:02:00,73.4,71.3,29.92,SSE,150,1.0,2.0,93,0.00,,,0.00,Wunderground v.1.15,2013-06-14 11:02:00,
2013-06-14 06:08:00,73.4,71.3,29.92,SSE,150,0.0,2.0,93,0.00,,,0.00,Wunderground v.1.15,2013-06-14 11:08:00,
2013-06-14 06:14:00,73.3,71.2,29.92,SSE,150,0.0,2.0,93,0.00,,,0.00,Wunderground v.1.15,2013-06-14 11:14:00,
2013-06-14 06:20:00,73.2,71.1,29.92,SSE,165,0.0,2.0,93,0.00,,,0.00,Wunderground v.1.15,2013-06-14 11:20:00,
2013-06-14 06:26:00,73.2,71.1,29.92,SSE,165,1.0,2.0,93,0.00,,,0.00,Wunderground v.1.15,2013-06-14 11:26:00,
2013-06-14 06:32:00,73.1,71.0,29.92,SSE,165,0.0,2.0,93,0.00,,,0.00,Wunderground v.1.15,2013-06-14 11:32:00,
2013-06-14 06:38:00,73.1,71.0,29.93,SSE,165,0.0,2.0,93,0.00,,,0.00,Wunderground v.1.15,2013-06-14 11:38:00,
2013-06-14 06:44:00,73.1,71.3,29.93,ESE,116,0.0,2.0,94,0.00,,,0.00,Wunderground v.1.15,2013-06-14 11:44:00,
2013-06-14 06:50:00,73.2,71.4,29.93,ESE,116,0.0,2.0,94,0.00,,,0.00,Wunderground v.1.15,2013-06-14 11:50:00,
2013-06-14 06:56:00,73.2,71.4,29.93,ESE,116,0.0,2.0,94,0.00,,,0.00,Wunderground v.1.15,2013-06-14 11:56:00,
2013-06-14 07:03:00,73.3,71.2,29.93,ESE,116,0.0,2.0,93,0.00,,,0.00,Wunderground v.1.15,2013-06-14 12:03:00,
2013-06-14 07:08:00,73.3,71.2,29.94,SSE,165,0.0,2.0,93,0.00,,,0.00,Wunderground v.1.15,2013-06-14 12:08:00,
2013-06-14 07:14:00,73.4,71.3,29.94,SSE,165,0.0,1.0,93,0.00,,,0.00,Wunderground v.1.15,2013-06-14 12:14:00,
2013-06-14 07:20:00,73.5,71.4,29.94,SSE,165,0.0,0.0,93,0.00,,,0.00,Wunderground v.1.15,2013-06-14 12:20:00,
2013-06-14 07:26:00,73.6,71.8,29.94,SSE,165,1.0,1.0,94,0.00,,,0.00,Wunderground v.1.15,2013-06-14 12:26:00,
2013-06-14 07:32:00,73.8,72.0,29.94,SSE,165,1.0,2.0,94,0.00,,,0.00,Wunderground v.1.15,2013-06-14 12:32:00,
2013-06-14 07:38:00,73.9,71.7,29.94,SE,144,1.0,2.0,93,0.00,,,0.00,Wunderground v.1.15,2013-06-14 12:38:00,
2013-06-14 07:44:00,74.1,71.9,29.94,SE,144,1.0,2.0,93,0.00,,,0.00,Wunderground v.1.15,2013-06-14 12:44:00,
2013-06-14 07:50:00,74.3,72.1,29.94,SE,144,1.0,2.0,93,0.00,,,0.00,Wunderground v.1.15,2013-06-14 12:50:00,
2013-06-14 07:56:00,74.4,72.2,29.94,SE,138,1.0,2.0,93,0.00,,,0.00,Wunderground v.1.15,2013-06-14 12:56:00,
2013-06-14 08:02:00,74.6,72.4,29.94,SE,141,1.0,2.0,93,0.00,,,0.00,Wunderground v.1.15,2013-06-14 13:02:00,
2013-06-14 08:08:00,74.7,72.5,29.94,South,170,1.0,2.0,93,0.00,,,0.00,Wunderground v.1.15,2013-06-14 13:08:00,
2013-06-14 08:14:00,74.9,72.7,29.94,South,171,1.0,2.0,93,0.00,,,0.00,Wunderground v.1.15,2013-06-14 13:14:00,
2013-06-14 08:20:00,74.9,72.7,29.94,SSE,149,1.0,2.0,93,0.00,,,0.00,Wunderground v.1.15,2013-06-14 13:20:00,
2013-06-14 08:26:00,75.1,72.9,29.94,South,175,1.0,2.0,93,0.00,,,0.00,Wunderground v.1.15,2013-06-14 13:26:00,
2013-06-14 08:32:00,75.2,73.0,29.94,SSE,148,1.0,2.0,93,0.00,,,0.00,Wunderground v.1.15,2013-06-14 13:32:00,
2013-06-14 08:38:00,75.5,73.3,29.94,SE,143,2.0,2.0,93,0.00,,,0.00,Wunderground v.1.15,2013-06-14 13:38:00,
2013-06-14 08:44:00,75.7,73.5,29.94,SE,128,2.0,2.0,93,0.00,,,0.00,Wunderground v.1.15,2013-06-14 13:44:00,
2013-06-14 08:50:00,75.9,73.7,29.94,SE,145,1.0,2.0,93,0.00,,,0.00,Wunderground v.1.15,2013-06-14 13:50:00,
2013-06-14 08:56:00,76.2,73.7,29.94,ESE,117,2.0,4.0,92,0.00,,,0.00,Wunderground v.1.15,2013-06-14 13:56:00,
2013-06-14 09:03:00,76.4,73.9,29.94,SSE,159,2.0,2.0,92,0.00,,,0.00,Wunderground v.1.15,2013-06-14 14:03:00,
2013-06-14 09:10:00,76.8,74.0,29.94,SE,133,2.0,7.0,91,0.00,,,0.00,Wunderground v.1.15,2013-06-14 14:10:00,
2013-06-14 09:16:00,77.5,74.3,29.94,SSE,157,2.0,7.0,90,0.00,,,0.00,Wunderground v.1.15,2013-06-14 14:16:00,
2013-06-14 09:22:00,78.3,74.1,29.94,SE,136,2.0,7.0,87,0.00,,,0.00,Wunderground v.1.15,2013-06-14 14:22:00,
2013-06-14 09:28:00,79.0,73.7,29.94,SSE,165,3.0,7.0,84,0.00,,,0.00,Wunderground v.1.15,2013-06-14 14:28:00,
2013-06-14 09:34:00,79.6,74.0,29.94,South,172,3.0,4.0,83,0.00,,,0.00,Wunderground v.1.15,2013-06-14 14:34:00,
2013-06-14 09:40:00,80.4,73.3,29.94,ESE,115,3.0,4.0,79,0.00,,,0.00,Wunderground v.1.15,2013-06-14 14:40:00,
2013-06-14 09:46:00,80.8,73.3,29.94,South,171,4.0,7.0,78,0.00,,,0.00,Wunderground v.1.15,2013-06-14 14:46:00,
2013-06-14 09:52:00,81.0,73.5,29.94,SE,128,3.0,4.0,78,0.00,,,0.00,Wunderground v.1.15,2013-06-14 14:52:00,
2013-06-14 09:58:00,81.2,73.7,29.94,ESE,113,3.0,4.0,78,0.00,,,0.00,Wunderground v.1.15,2013-06-14 14:58:00,
2013-06-14 10:04:00,81.0,73.1,29.94,SE,145,4.0,7.0,77,0.00,,,0.00,Wunderground v.1.15,2013-06-14 15:04:00,
2013-06-14 10:10:00,80.6,73.1,29.94,ESE,110,3.0,3.0,78,0.00,,,0.00,Wunderground v.1.15,2013-06-14 15:10:00,
2013-06-14 10:16:00,80.2,72.3,29.94,SSW,194,3.0,4.0,77,0.00,,,0.00,Wunderground v.1.15,2013-06-14 15:16:00,
2013-06-14 10:22:00,80.1,72.2,29.94,ESE,113,2.0,4.0,77,0.00,,,0.00,Wunderground v.1.15,2013-06-14 15:22:00,
2013-06-14 10:28:00,80.2,72.7,29.94,ESE,106,2.0,4.0,78,0.00,,,0.00,Wunderground v.1.15,2013-06-14 15:28:00,
2013-06-14 10:34:00,80.4,72.9,29.94,SSE,153,2.0,4.0,78,0.00,,,0.00,Wunderground v.1.15,2013-06-14 15:34:00,
2013-06-14 10:40:00,80.5,73.0,29.94,SE,144,2.0,4.0,78,0.00,,,0.00,Wunderground v.1.15,2013-06-14 15:40:00,
2013-06-14 10:46:00,80.4,73.3,29.94,SE,145,2.0,4.0,79,0.00,,,0.00,Wunderground v.1.15,2013-06-14 15:46:00,
2013-06-14 10:52:00,80.1,73.0,29.94,SSE,160,2.0,5.0,79,0.00,,,0.00,Wunderground v.1.15,2013-06-14 15:52:00,
2013-06-14 10:58:00,79.8,73.1,29.94,SSE,168,2.0,5.0,80,0.00,,,0.00,Wunderground v.1.15,2013-06-14 15:58:00,
2013-06-14 11:04:00,79.5,73.2,29.94,SSE,156,2.0,4.0,81,0.00,,,0.00,Wunderground v.1.15,2013-06-14 16:04:00,
2013-06-14 11:10:00,79.4,73.1,29.94,SSE,150,3.0,3.0,81,0.00,,,0.00,Wunderground v.1.15,2013-06-14 16:10:00,
2013-06-14 11:16:00,79.4,73.1,29.94,SSE,154,3.0,3.0,81,0.00,,,0.00,Wunderground v.1.15,2013-06-14 16:16:00,
2013-06-14 11:22:00,79.4,73.4,29.94,SE,135,3.0,3.0,82,0.00,,,0.00,Wunderground v.1.15,2013-06-14 16:22:00,
2013-06-14 11:28:00,79.6,73.6,29.93,SSE,150,2.0,3.0,82,0.00,,,0.00,Wunderground v.1.15,2013-06-14 16:28:00,
2013-06-14 11:34:00,79.9,73.5,29.93,South,171,2.0,8.0,81,0.00,,,0.00,Wunderground v.1.15,2013-06-14 16:34:00,
2013-06-14 11:40:00,80.2,73.5,29.93,ESE,119,3.0,8.0,80,0.00,,,0.00,Wunderground v.1.15,2013-06-14 16:40:00,
2013-06-14 11:46:00,80.5,73.4,29.93,SSE,161,3.0,8.0,79,0.00,,,0.00,Wunderground v.1.15,2013-06-14 16:46:00,
2013-06-14 11:52:00,81.1,74.0,29.93,SSE,153,3.0,8.0,79,0.00,,,0.00,Wunderground v.1.15,2013-06-14 16:52:00,
2013-06-14 11:58:00,82.3,73.6,29.93,ESE,113,3.0,8.0,75,0.00,,,0.00,Wunderground v.1.15,2013-06-14 16:58:00,
2013-06-14 12:04:00,83.2,73.2,29.93,SE,126,3.0,8.0,72,0.00,,,0.00,Wunderground v.1.15,2013-06-14 17:04:00,
2013-06-14 12:10:00,83.4,73.4,29.93,SE,130,3.0,8.0,72,0.00,,,0.00,Wunderground v.1.15,2013-06-14 17:10:00,
2013-06-14 12:16:00,83.2,73.2,29.92,SE,141,3.0,8.0,72,0.00,,,0.00,Wunderground v.1.15,2013-06-14 17:16:00,
2013-06-14 12:22:00,83.6,72.8,29.92,ESE,123,3.0,8.0,70,0.00,,,0.00,Wunderground v.1.15,2013-06-14 17:22:00,
2013-06-14 12:32:00,83.9,71.8,29.92,ESE,120,3.0,8.0,67,0.00,,,0.00,Wunderground v.1.15,2013-06-14 17:32:00,
2013-06-14 12:38:00,84.7,72.1,29.91,East,99,4.0,8.0,66,0.00,,,0.00,Wunderground v.1.15,2013-06-14 17:38:00,
2013-06-14 12:44:00,85.6,72.5,29.92,South,190,4.0,8.0,65,0.00,,,0.00,Wunderground v.1.15,2013-06-14 17:44:00,
2013-06-14 12:50:00,86.2,73.0,29.91,East,93,3.0,8.0,65,0.00,,,0.00,Wunderground v.1.15,2013-06-14 17:50:00,
2013-06-14 12:56:00,86.5,72.9,29.91,SSE,159,3.0,8.0,64,0.00,,,0.00,Wunderground v.1.15,2013-06-14 17:56:00,
2013-06-14 13:03:00,85.8,72.7,29.91,SSE,148,3.0,8.0,65,0.00,,,0.00,Wunderground v.1.15,2013-06-14 18:03:00,
2013-06-14 13:08:00,85.4,71.8,29.92,SSE,165,4.0,8.0,64,0.00,,,0.00,Wunderground v.1.15,2013-06-14 18:08:00,
2013-06-14 13:14:00,85.1,72.9,29.92,South,180,4.0,4.0,67,0.00,,,0.00,Wunderground v.1.15,2013-06-14 18:14:00,
2013-06-14 13:20:00,85.3,72.6,29.92,South,174,3.0,3.0,66,0.00,,,0.00,Wunderground v.1.15,2013-06-14 18:20:00,
2013-06-14 13:26:00,85.4,73.2,29.91,SSE,157,2.0,3.0,67,0.00,,,0.00,Wunderground v.1.15,2013-06-14 18:26:00,
2013-06-14 13:32:00,85.4,73.2,29.92,SSE,153,2.0,10.0,67,0.00,,,0.00,Wunderground v.1.15,2013-06-14 18:32:00,
2013-06-14 13:38:00,85.3,73.1,29.91,SE,141,2.0,10.0,67,0.00,,,0.00,Wunderground v.1.15,2013-06-14 18:38:00,
2013-06-14 13:44:00,84.8,72.2,29.91,South,186,3.0,10.0,66,0.00,,,0.00,Wunderground v.1.15,2013-06-14 18:44:00,
2013-06-14 13:50:00,84.7,72.5,29.91,SE,125,3.0,10.0,67,0.00,,,0.00,Wunderground v.1.15,2013-06-14 18:50:00,
2013-06-14 13:56:00,84.5,72.8,29.91,SSE,149,2.0,10.0,68,0.00,,,0.00,Wunderground v.1.15,2013-06-14 18:56:00,
2013-06-14 14:02:00,84.6,73.3,29.91,SSE,150,2.0,10.0,69,0.00,,,0.00,Wunderground v.1.15,2013-06-14 19:02:00,
2013-06-14 14:08:00,84.5,73.2,29.91,ESE,113,2.0,10.0,69,0.00,,,0.00,Wunderground v.1.15,2013-06-14 19:08:00,
2013-06-14 14:14:00,84.6,73.7,29.91,South,170,3.0,10.0,70,0.00,,,0.00,Wunderground v.1.15,2013-06-14 19:14:00,
2013-06-14 14:20:00,84.8,73.5,29.90,ESE,109,2.0,10.0,69,0.00,,,0.00,Wunderground v.1.15,2013-06-14 19:20:00,
2013-06-14 14:26:00,85.2,74.3,29.90,South,187,3.0,10.0,70,0.00,,,0.00,Wunderground v.1.15,2013-06-14 19:26:00,
2013-06-14 14:32:00,85.7,73.0,29.90,SE,127,2.0,10.0,66,0.00,,,0.00,Wunderground v.1.15,2013-06-14 19:32:00,
2013-06-14 14:38:00,86.2,74.4,29.89,SE,128,2.0,10.0,68,0.00,,,0.00,Wunderground v.1.15,2013-06-14 19:38:00,
2013-06-14 14:44:00,86.5,73.8,29.89,SSE,148,2.0,10.0,66,0.00,,,0.00,Wunderground v.1.15,2013-06-14 19:44:00,
2013-06-14 14:50:00,86.5,73.8,29.89,South,169,2.0,2.0,66,0.00,,,0.00,Wunderground v.1.15,2013-06-14 19:50:00,
2013-06-14 14:56:00,86.6,73.4,29.89,East,97,2.0,10.0,65,0.00,,,0.00,Wunderground v.1.15,2013-06-14 19:56:00,
2013-06-14 15:03:00,86.9,73.7,29.89,SE,144,2.0,3.0,65,0.00,,,0.00,Wunderground v.1.15,2013-06-14 20:03:00,
2013-06-14 15:08:00,86.7,73.5,29.89,South,180,2.0,3.0,65,0.00,,,0.00,Wunderground v.1.15,2013-06-14 20:08:00,
2013-06-14 15:14:00,86.5,73.3,29.89,SSE,168,2.0,3.0,65,0.00,,,0.00,Wunderground v.1.15,2013-06-14 20:14:00,
2013-06-14 15:20:00,86.3,73.6,29.89,NNW,329,1.0,2.0,66,0.00,,,0.00,Wunderground v.1.15,2013-06-14 20:20:00,
2013-06-14 15:26:00,85.9,73.2,29.89,SE,142,1.0,2.0,66,0.00,,,0.00,Wunderground v.1.15,2013-06-14 20:26:00,
2013-06-14 15:32:00,85.2,73.4,29.89,East,97,2.0,2.0,68,0.00,,,0.00,Wunderground v.1.15,2013-06-14 20:32:00,
2013-06-14 15:38:00,83.9,72.6,29.89,SSE,155,2.0,6.0,69,0.00,,,0.00,Wunderground v.1.15,2013-06-14 20:38:00,
2013-06-14 15:44:00,83.4,73.0,29.89,SSE,147,1.0,6.0,71,0.00,,,0.00,Wunderground v.1.15,2013-06-14 20:44:00,
2013-06-14 15:50:00,83.2,71.1,29.89,SE,140,1.0,6.0,67,0.00,,,0.00,Wunderground v.1.15,2013-06-14 20:50:00,
2013-06-14 15:56:00,83.4,73.0,29.89,SE,124,1.0,6.0,71,0.00,,,0.00,Wunderground v.1.15,2013-06-14 20:56:00,
2013-06-14 16:02:00,83.7,72.9,29.88,SSE,159,1.0,6.0,70,0.00,,,0.00,Wunderground v.1.15,2013-06-14 21:02:00,
2013-06-14 16:08:00,83.9,73.1,29.88,SSW,193,1.0,6.0,70,0.00,,,0.00,Wunderground v.1.15,2013-06-14 21:08:00,
2013-06-14 16:14:00,83.9,73.1,29.88,SSE,163,1.0,6.0,70,0.00,,,0.00,Wunderground v.1.15,2013-06-14 21:14:00,
2013-06-14 16:20:00,83.9,73.5,29.88,SSW,208,1.0,6.0,71,0.00,,,0.00,Wunderground v.1.15,2013-06-14 21:20:00,
2013-06-14 16:26:00,83.9,73.5,29.88,SE,131,1.0,6.0,71,0.00,,,0.00,Wunderground v.1.15,2013-06-14 21:26:00,
2013-06-14 16:32:00,83.9,74.3,29.87,SSW,207,1.0,6.0,73,0.00,,,0.00,Wunderground v.1.15,2013-06-14 21:32:00,
2013-06-14 16:38:00,84.0,74.0,29.87,SSW,196,1.0,6.0,72,0.00,,,0.00,Wunderground v.1.15,2013-06-14 21:38:00,
2013-06-14 16:44:00,84.0,73.6,29.87,SW,235,1.0,6.0,71,0.00,,,0.00,Wunderground v.1.15,2013-06-14 21:44:00,
2013-06-14 16:50:00,84.0,74.0,29.87,South,177,1.0,6.0,72,0.00,,,0.00,Wunderground v.1.15,2013-06-14 21:50:00,
2013-06-14 16:58:00,84.2,73.8,29.87,SE,125,2.0,6.0,71,0.00,,,0.00,Wunderground v.1.15,2013-06-14 21:58:00,
2013-06-14 17:04:00,84.4,73.1,29.87,SW,218,1.0,2.0,69,0.00,,,0.00,Wunderground v.1.15,2013-06-14 22:04:00,
2013-06-14 17:10:00,84.7,72.5,29.86,SE,146,1.0,1.0,67,0.00,,,0.00,Wunderground v.1.15,2013-06-14 22:10:00,
2013-06-14 17:16:00,84.9,72.7,29.86,SSE,158,1.0,2.0,67,0.00,,,0.00,Wunderground v.1.15,2013-06-14 22:16:00,
2013-06-14 17:22:00,85.0,72.4,29.86,South,190,1.0,1.0,66,0.00,,,0.00,Wunderground v.1.15,2013-06-14 22:22:00,
2013-06-14 17:28:00,85.0,72.8,29.86,SE,141,1.0,2.0,67,0.00,,,0.00,Wunderground v.1.15,2013-06-14 22:28:00,
2013-06-14 17:34:00,84.9,73.2,29.86,SE,129,1.0,3.0,68,0.00,,,0.00,Wunderground v.1.15,2013-06-14 22:34:00,
2013-06-14 17:40:00,85.0,73.3,29.86,SE,146,1.0,3.0,68,0.00,,,0.00,Wunderground v.1.15,2013-06-14 22:40:00,
2013-06-14 17:46:00,85.0,73.7,29.86,South,188,1.0,3.0,69,0.00,,,0.00,Wunderground v.1.15,2013-06-14 22:46:00,
2013-06-14 17:52:00,84.9,73.6,29.85,SE,127,1.0,3.0,69,0.00,,,0.00,Wunderground v.1.15,2013-06-14 22:52:00,
2013-06-14 17:58:00,84.6,73.7,29.85,SE,125,1.0,3.0,70,0.00,,,0.00,Wunderground v.1.15,2013-06-14 22:58:00,
2013-06-14 18:04:00,84.5,73.2,29.85,SE,126,1.0,3.0,69,0.00,,,0.00,Wunderground v.1.15,2013-06-14 23:04:00,
2013-06-14 18:10:00,84.4,73.5,29.85,SE,126,0.0,3.0,70,0.00,,,0.00,Wunderground v.1.15,2013-06-14 23:10:00,
2013-06-14 18:16:00,84.3,73.0,29.85,SE,130,1.0,3.0,69,0.00,,,0.00,Wunderground v.1.15,2013-06-14 23:16:00,
2013-06-14 18:22:00,84.2,72.9,29.85,SE,130,1.0,3.0,69,0.00,,,0.00,Wunderground v.1.15,2013-06-14 23:22:00,
2013-06-14 18:28:00,84.1,72.8,29.85,SE,130,1.0,3.0,69,0.00,,,0.00,Wunderground v.1.15,2013-06-14 23:28:00,
2013-06-14 18:34:00,84.0,73.2,29.85,SE,130,0.0,3.0,70,0.00,,,0.00,Wunderground v.1.15,2013-06-14 23:34:00,
2013-06-14 18:40:00,83.9,73.5,29.86,SE,130,0.0,3.0,71,0.00,,,0.00,Wunderground v.1.15,2013-06-14 23:40:00,
2013-06-14 18:46:00,83.9,73.5,29.85,SE,130,0.0,3.0,71,0.00,,,0.00,Wunderground v.1.15,2013-06-14 23:46:00,
2013-06-14 18:52:00,83.8,73.0,29.86,SE,130,0.0,3.0,70,0.00,,,0.00,Wunderground v.1.15,2013-06-14 23:52:00,
2013-06-14 18:58:00,83.9,73.9,29.85,SE,131,0.0,3.0,72,0.00,,,0.00,Wunderground v.1.15,2013-06-14 23:58:00,
2013-06-14 19:04:00,83.9,74.3,29.85,SE,131,0.0,3.0,73,0.00,,,0.00,Wunderground v.1.15,2013-06-15 00:04:00,
2013-06-14 19:10:00,83.7,73.3,29.86,SE,131,0.0,0.0,71,0.00,,,0.00,Wunderground v.1.15,2013-06-15 00:10:00,
2013-06-14 19:16:00,83.5,74.3,29.86,SE,131,0.0,0.0,74,0.00,,,0.00,Wunderground v.1.15,2013-06-15 00:16:00,
2013-06-14 19:22:00,83.3,74.1,29.86,SE,131,0.0,1.0,74,0.00,,,0.00,Wunderground v.1.15,2013-06-15 00:22:00,
2013-06-14 19:28:00,82.9,74.2,29.86,SE,131,0.0,1.0,75,0.00,,,0.00,Wunderground v.1.15,2013-06-15 00:28:00,
2013-06-14 19:34:00,82.7,74.4,29.86,SE,131,0.0,2.0,76,0.00,,,0.00,Wunderground v.1.15,2013-06-15 00:34:00,
2013-06-14 19:40:00,82.5,74.2,29.86,SE,131,0.0,2.0,76,0.00,,,0.00,Wunderground v.1.15,2013-06-15 00:40:00,
2013-06-14 19:46:00,82.2,74.3,29.86,SE,131,0.0,2.0,77,0.00,,,0.00,Wunderground v.1.15,2013-06-15 00:46:00,
2013-06-14 19:52:00,81.9,74.0,29.86,SE,131,0.0,2.0,77,0.00,,,0.00,Wunderground v.1.15,2013-06-15 00:52:00,
2013-06-14 19:58:00,81.6,74.1,29.86,SE,131,0.0,2.0,78,0.00,,,0.00,Wunderground v.1.15,2013-06-15 00:58:00,
2013-06-14 20:04:00,81.3,74.2,29.86,SE,131,0.0,2.0,79,0.00,,,0.00,Wunderground v.1.15,2013-06-15 01:04:00,
2013-06-14 20:10:00,80.9,73.8,29.86,SE,131,0.0,2.0,79,0.00,,,0.00,Wunderground v.1.15,2013-06-15 01:10:00,
2013-06-14 20:16:00,80.6,73.9,29.86,SE,131,0.0,2.0,80,0.00,,,0.00,Wunderground v.1.15,2013-06-15 01:16:00,
2013-06-14 20:22:00,80.3,73.9,29.86,SE,131,0.0,2.0,81,0.00,,,0.00,Wunderground v.1.15,2013-06-15 01:22:00,
2013-06-14 20:28:00,80.0,73.6,29.86,SE,131,0.0,2.0,81,0.00,,,0.00,Wunderground v.1.15,2013-06-15 01:28:00,
2013-06-14 20:34:00,79.7,73.3,29.86,SE,131,0.0,2.0,81,0.00,,,0.00,Wunderground v.1.15,2013-06-15 01:34:00,
2013-06-14 20:40:00,79.4,73.4,29.86,SE,131,0.0,2.0,82,0.00,,,0.00,Wunderground v.1.15,2013-06-15 01:40:00,
2013-06-14 20:46:00,79.1,73.1,29.86,SE,131,0.0,2.0,82,0.00,,,0.00,Wunderground v.1.15,2013-06-15 01:46:00,
2013-06-14 20:52:00,78.8,73.2,29.86,SE,131,0.0,2.0,83,0.00,,,0.00,Wunderground v.1.15,2013-06-15 01:52:00,
2013-06-14 20:58:00,78.5,72.9,29.86,SE,131,0.0,2.0,83,0.00,,,0.00,Wunderground v.1.15,2013-06-15 01:58:00,
2013-06-14 21:04:00,78.2,73.0,29.86,SE,131,0.0,2.0,84,0.00,,,0.00,Wunderground v.1.15,2013-06-15 02:04:00,
2013-06-14 21:10:00,78.0,72.8,29.87,SE,131,0.0,0.0,84,0.00,,,0.00,Wunderground v.1.15,2013-06-15 02:10:00,
2013-06-14 21:16:00,77.8,72.6,29.86,SE,131,0.0,0.0,84,0.00,,,0.00,Wunderground v.1.15,2013-06-15 02:16:00,
2013-06-14 21:22:00,77.6,72.7,29.86,SE,131,0.0,0.0,85,0.00,,,0.00,Wunderground v.1.15,2013-06-15 02:22:00,
2013-06-14 21:28:00,77.4,72.5,29.86,SE,131,0.0,0.0,85,0.00,,,0.00,Wunderground v.1.15,2013-06-15 02:28:00,
2013-06-14 21:34:00,77.2,72.3,29.86,SE,131,0.0,0.0,85,0.00,,,0.00,Wunderground v.1.15,2013-06-15 02:34:00,
2013-06-14 21:40:00,77.0,72.5,29.86,SE,131,0.0,0.0,86,0.00,,,0.00,Wunderground v.1.15,2013-06-15 02:40:00,
2013-06-14 21:46:00,76.8,72.3,29.86,SE,131,0.0,0.0,86,0.00,,,0.00,Wunderground v.1.15,2013-06-15 02:46:00,
2013-06-14 21:52:00,76.8,72.3,29.86,SE,131,0.0,0.0,86,0.00,,,0.00,Wunderground v.1.15,2013-06-15 02:52:00,
2013-06-14 21:58:00,76.6,72.1,29.87,SE,131,0.0,0.0,86,0.00,,,0.00,Wunderground v.1.15,2013-06-15 02:58:00,
2013-06-14 22:04:00,76.5,72.0,29.87,SE,131,0.0,0.0,86,0.00,,,0.00,Wunderground v.1.15,2013-06-15 03:04:00,
2013-06-14 22:10:00,76.4,72.2,29.87,SE,131,0.0,0.0,87,0.00,,,0.00,Wunderground v.1.15,2013-06-15 03:10:00,
2013-06-14 22:16:00,76.3,72.1,29.87,SE,131,0.0,0.0,87,0.00,,,0.00,Wunderground v.1.15,2013-06-15 03:16:00,
2013-06-14 22:22:00,76.2,72.0,29.87,SE,131,0.0,0.0,87,0.00,,,0.00,Wunderground v.1.15,2013-06-15 03:22:00,
2013-06-14 22:28:00,76.1,71.9,29.88,SE,131,0.0,0.0,87,0.00,,,0.00,Wunderground v.1.15,2013-06-15 03:28:00,
2013-06-14 22:36:00,76.0,72.2,29.88,SE,131,0.0,0.0,88,0.00,,,0.00,Wunderground v.1.15,2013-06-15 03:36:00,
2013-06-14 22:42:00,76.0,72.2,29.88,SE,131,0.0,0.0,88,0.00,,,0.00,Wunderground v.1.15,2013-06-15 03:42:00,
2013-06-14 22:48:00,75.9,72.1,29.88,SE,131,0.0,0.0,88,0.00,,,0.00,Wunderground v.1.15,2013-06-15 03:48:00,
2013-06-14 22:54:00,75.9,72.1,29.88,SE,131,0.0,0.0,88,0.00,,,0.00,Wunderground v.1.15,2013-06-15 03:54:00,
2013-06-14 23:00:00,75.8,72.3,29.88,SE,131,0.0,0.0,89,0.00,,,0.00,Wunderground v.1.15,2013-06-15 04:00:00,
2013-06-14 23:03:00,75.8,72.3,29.88,SE,131,0.0,0.0,89,0.00,,,0.00,Wunderground v.1.15,2013-06-15 04:03:00,
2013-06-14 23:04:00,75.8,72.3,29.88,SE,131,0.0,0.0,89,0.00,,,0.00,Wunderground v.1.15,2013-06-15 04:04:00,
2013-06-14 23:08:00,75.8,72.3,29.89,SE,131,0.0,0.0,89,0.00,,,0.00,Wunderground v.1.15,2013-06-15 04:08:00,
2013-06-14 23:10:00,75.8,72.3,29.89,SE,131,0.0,0.0,89,0.00,,,0.00,Wunderground v.1.15,2013-06-15 04:10:00,
2013-06-14 23:16:00,75.7,72.2,29.89,SE,131,0.0,0.0,89,0.00,,,0.00,Wunderground v.1.15,2013-06-15 04:16:00,
2013-06-14 23:22:00,75.7,72.2,29.89,SE,131,0.0,0.0,89,0.00,,,0.00,Wunderground v.1.15,2013-06-15 04:22:00,
2013-06-14 23:28:00,75.8,72.3,29.89,SE,131,0.0,0.0,89,0.00,,,0.00,Wunderground v.1.15,2013-06-15 04:28:00,
2013-06-14 23:34:00,75.8,72.3,29.89,SE,131,0.0,0.0,89,0.00,,,0.00,Wunderground v.1.15,2013-06-15 04:34:00,
2013-06-14 23:38:00,75.8,72.3,29.89,SE,131,0.0,0.0,89,0.00,,,0.00,Wunderground v.1.15,2013-06-15 04:38:00,
2013-06-14 23:44:00,75.8,72.3,29.89,SE,131,0.0,0.0,89,0.00,,,0.00,Wunderground v.1.15,2013-06-15 04:44:00,
2013-06-14 23:50:00,75.8,72.3,29.89,SE,131,0.0,0.0,89,0.00,,,0.00,Wunderground v.1.15,2013-06-15 04:50:00,
2013-06-14 23:56:00,75.8,72.3,29.89,SE,131,0.0,0.0,89,0.00,,,0.00,Wunderground v.1.15,2013-06-15 04:56:00,